Weather in Kalisz

Poland     51°44′45″N   18°04′49″E
temp.,
°C
wind,
m/s
gust,
m/s
humid.,
%
clouds,
%
prec.,
mm/h
press.,
hPa
HPBL,
m
27 september, mon
mon2723:00+14ese4108429 0.0 1020194
02:00+13ese498649 0.0 1020200
05:00+12e489346 0.0 1020180
08:00+13e498780 0.0 1020258
11:00+18ese576632 0.0 1020655
14:00+21ese6756100 0.0 10181126
17:00+20ese5759100 0.0 1018756
20:00+16e6116495 0.0 1019322
28 september, tue
tue2823:00+14ese5106484 0.0 1020269
02:00+12ese4870100 0.0 1020190
05:00+13ese3566100 0.0 1020197
08:00+12ese3567100 0.0 1022207
11:00+15se3460100 0.0 1023402
14:00+17ese3354100 0.0 1023667
17:00+17ese3454100 0.0 1023482
20:00+15ese366287 0.0 1024164
29 september, wed
wed2923:00+12se357494 0.0 102592
02:00+11se377850 0.0 1024131
05:00+9ese4880100 0.0 1024157
08:00+10ese497573 0.0 1023257
11:00+15ese5853100 0.0 1023636
14:00+17ese6845100 0.0 1021994
17:00+16se4756100 0.0 1020666
20:00+14se4868100 0.0 1021176
30 september, thu
thu3023:00+14ssw3583100 0.0 1021110
02:00+14w51195100 1.1 1022649
05:00+12wnw61086100 2.4 1024522
08:00+10wnw51181100 2.4 1026533
11:00+13wnw575890 0.0 1028992
14:00+16wnw55458 0.0 10271734
17:00+15w33395 0.0 10271622
20:00+10w11500 0.0 102810
1 october, fri
fri123:00+9s11525 0.0 102810
02:00+8sse335917 0.0 102840
05:00+7s357276 0.0 102767
08:00+9s3875100 0.0 1027235
11:00+14s465479 0.0 1026537
14:00+17ssw4541100 0.0 10241307
17:00+17s364892 0.0 1023270
20:00+13sse455899 0.0 102372